Location: Igloolik
(69.3800°N, 81.8000°W)
Time: 02:57:08
(UTC-06:00)

Amateur Radio Satellites - All Passes

Search period start: 25 February 2017 02:27
Search period end: 26 February 2017 02:27
Location: Igloolik, 69.3800°N, 81.8000°W

Satellite Date Start Highest point End Downlink Frequencies (MHz)
Time Altitude Azimuth
DUCHIFAT 1 25 Feb 02:28:51 02:32:29 28° 323° (NW) 02:36:07 145.980
M-CUBED/EXP-1 PRIME 25 Feb 02:31:26 02:34:42 70° 238° (WSW) 02:38:07 437.505
RS-15 25 Feb 02:31:49 02:42:05 33° 249° (WSW) 02:52:11 29.354- 29.394
AO-7 25 Feb 02:37:15 02:44:59 39° 93° (E) 02:52:40 .
EO-79 25 Feb 02:39:07 02:42:38 25° 327° (NNW) 02:46:08 145.935-145.965
Oscar 19 25 Feb 02:41:58 02:47:06 69° 304° (WNW) 02:52:12 437.125/150
KKS-1 25 Feb 02:55:16 02:59:36 51° 256° (WSW) 03:03:59 437.445
NANOSAT C BR1 25 Feb 02:56:27 02:59:48 23° 331° (NNW) 03:03:10 145.865
POLYITAN 1 25 Feb 02:56:31 02:59:53 23° 331° (NNW) 03:03:15 437.675
FO-29 25 Feb 02:58:31 03:05:32 38° 346° (NNW) 03:12:27 435.910
SO-50 25 Feb 02:59:10 03:03:33 44° 192° (SSW) 03:07:51 436.795
QB50P2 25 Feb 02:59:29 03:02:48 22° 333° (NNW) 03:06:05 145.880/145.840
AIST 2D 25 Feb 03:06:47 03:08:36 13° 339° (NNW) 03:10:24 435.315
PRISM 25 Feb 03:07:35 03:10:03 16° 7° (N) 03:12:32 437.425
UNISAT 6 25 Feb 03:09:42 03:12:54 18° 358° (N) 03:16:07 437.425
TIGRISAT 25 Feb 03:10:10 03:13:22 18° 358° (N) 03:16:35 435.000
ITAMSAT 1 25 Feb 03:14:20 03:19:33 59° 106° (ESE) 03:24:45 435.822/435.867
CUBESAT XI-V 25 Feb 03:19:13 03:23:47 53° 257° (WSW) 03:28:21 437.345
Gurwin Techsat 1B 25 Feb 03:23:25 03:28:42 62° 307° (NW) 03:33:58 435.225
BUGSAT 1 25 Feb 03:27:45 03:31:09 24° 327° (NNW) 03:34:35 437.445
STARS 25 Feb 03:30:32 03:34:49 49° 257° (WSW) 03:39:08 437.465
ITUPSAT 1 25 Feb 03:30:51 03:33:12 13° 287° (WNW) 03:35:35 437.325
STRAND 1 25 Feb 03:33:21 03:38:15 45° 44° (NE) 03:43:10 437.568
BEESAT 25 Feb 03:38:19 03:40:15 12° 289° (WNW) 03:42:12 436.000
O/OREOS (USA 219) 25 Feb 03:44:29 03:49:02 65° 9° (N) 03:53:36 437.305
MOZHAYETS 4 25 Feb 04:01:26 04:04:09 15° 285° (WNW) 04:06:52
DUCHIFAT 1 25 Feb 04:04:22 04:07:10 17° 346° (NNW) 04:10:00 145.980
M-CUBED/EXP-1 PRIME 25 Feb 04:07:28 04:09:51 18° 261° (W) 04:12:16 437.505
EO-79 25 Feb 04:14:36 04:17:21 17° 350° (N) 04:20:06 145.935-145.965
CUTE-I 25 Feb 04:19:16 04:23:04 19° 78° (ENE) 04:26:52 437.470
Oscar 19 25 Feb 04:21:22 04:25:56 33° 327° (NNW) 04:30:30 437.125/150
AO-7 25 Feb 04:30:34 04:38:59 79° 120° (ESE) 04:47:20 .
NANOSAT C BR1 25 Feb 04:31:45 04:34:25 16° 354° (N) 04:37:06 145.865
POLYITAN 1 25 Feb 04:31:52 04:34:34 17° 355° (N) 04:37:17 437.675
KKS-1 25 Feb 04:34:16 04:37:12 17° 279° (W) 04:40:09 437.445
QB50P2 25 Feb 04:34:47 04:37:27 16° 356° (N) 04:40:08 145.880/145.840
SO-50 25 Feb 04:39:27 04:43:21 28° 215° (SW) 04:47:13 436.795
AIST 2D 25 Feb 04:39:39 04:40:37 11° 2° (N) 04:41:36 435.315
PRISM 25 Feb 04:41:06 04:44:18 23° 30° (NNE) 04:47:30 437.425
FO-29 25 Feb 04:42:12 04:49:09 37° 11° (NNE) 04:56:06 435.910
KAITUO 1B 25 Feb 04:42:39 04:45:16 17° 83° (E) 04:47:53 145.475/437.950
RS-15 25 Feb 04:44:43 04:50:16 14° 279° (W) 04:55:46 29.354- 29.394
UNISAT 6 25 Feb 04:44:51 04:48:25 22° 22° (NNE) 04:52:00 437.425
TIGRISAT 25 Feb 04:45:19 04:48:50 22° 21° (NNE) 04:52:25 435.000
XW-2F 25 Feb 04:46:40 04:49:35 20° 86° (E) 04:52:29 145.980 - 146.000
XW-2D 25 Feb 04:51:02 04:54:06 22° 87° (E) 04:57:09 145.860 - 145.880
ITAMSAT 1 25 Feb 04:53:59 04:59:08 57° 310° (NW) 05:04:17 435.822/435.867
XW-2B 25 Feb 04:56:03 04:59:12 23° 88° (E) 05:02:19 145.730 - 145.750
CUBESAT XI-V 25 Feb 04:58:57 05:02:11 18° 280° (W) 05:05:27 437.345
DOVE 4 25 Feb 05:00:07 05:04:04 29° 91° (E) 05:08:12 437.250
BUGSAT 1 25 Feb 05:02:51 05:05:28 16° 350° (N) 05:08:07 437.445
Gurwin Techsat 1B 25 Feb 05:03:23 05:08:05 32° 330° (NNW) 05:12:46 435.225
XW-2C 25 Feb 05:04:39 05:07:56 25° 91° (E) 05:11:12 145.795 - 145.815
STARS 25 Feb 05:09:26 05:12:13 16° 280° (W) 05:15:02 437.465
STRAND 1 25 Feb 05:12:06 05:17:17 79° 247° (WSW) 05:22:31 437.568
NUDT-PHONESAT 25 Feb 05:17:46 05:21:04 27° 92° (E) 05:24:20 437.300
LilacSat-2 25 Feb 05:21:05 05:24:38 32° 95° (E) 05:28:08 437.200
AO-85 25 Feb 05:22:56 05:26:16 23° 142° (SE) 05:29:28 145.980
O/OREOS (USA 219) 25 Feb 05:24:07 05:28:41 82° 214° (SW) 05:33:17 437.305
HO-68 25 Feb 05:31:00 05:36:29 23° 76° (ENE) 05:41:57 435.675
DUCHIFAT 1 25 Feb 05:38:56 05:41:39 17° 9° (N) 05:44:21 145.980
CUTE 1.7 + AOD 2 25 Feb 05:41:59 05:44:41 16° 79° (E) 05:47:22 437.475
EO-79 25 Feb 05:49:05 05:51:55 17° 14° (NNE) 05:54:45 145.935-145.965
CUBEBUG 2 25 Feb 05:56:45 05:59:38 16° 75° (ENE) 06:02:31 437.445
CUTE-I 25 Feb 05:59:09 06:04:25 50° 102° (ESE) 06:09:39 437.470
Oscar 19 25 Feb 06:00:15 06:04:15 23° 351° (N) 06:08:14 437.125/150
YUBILEINY 25 Feb 06:05:50 06:10:13 15° 40° (NE) 06:14:35 435.215
NANOSAT C BR1 25 Feb 06:06:02 06:08:57 18° 17° (NNE) 06:11:52 145.865
POLYITAN 1 25 Feb 06:06:11 06:09:10 19° 18° (NNE) 06:12:10 437.675
QB50P2 25 Feb 06:09:03 06:12:04 19° 19° (NNE) 06:15:05 145.880/145.840
AO-73 25 Feb 06:10:29 06:11:08 10° 67° (ENE) 06:11:47 145.935
AIST 2D 25 Feb 06:10:39 06:12:40 15° 25° (NNE) 06:14:42 435.315
PRISM 25 Feb 06:15:03 06:19:00 49° 53° (NE) 06:22:57 437.425
KAITUO 1B 25 Feb 06:16:16 06:20:04 60° 105° (ESE) 06:23:50 145.475/437.950
UNISAT 6 25 Feb 06:19:57 06:24:15 39° 45° (NE) 06:28:38 437.425
TIGRISAT 25 Feb 06:20:22 06:24:39 38° 44° (NE) 06:29:00 435.000
XW-2F 25 Feb 06:20:33 06:24:25 70° 107° (ESE) 06:28:15 145.980 - 146.000
SO-50 25 Feb 06:20:38 06:22:37 13° 238° (WSW) 06:24:35 436.795
AO-7 25 Feb 06:23:34 06:31:46 63° 326° (NW) 06:39:56 .
XW-2D 25 Feb 06:25:02 06:28:55 76° 108° (ESE) 06:32:47 145.860 - 145.880
FO-29 25 Feb 06:25:39 06:33:00 50° 36° (NE) 06:40:29 435.910
AAUSAT CUBESAT 2 25 Feb 06:29:59 06:32:39 16° 80° (E) 06:35:17 437.432
XW-2B 25 Feb 06:30:05 06:34:00 80° 113° (ESE) 06:37:51 145.730 - 145.750
ITAMSAT 1 25 Feb 06:33:26 06:37:59 31° 333° (NNW) 06:42:32 435.822/435.867
UWE-3 25 Feb 06:34:40 06:38:00 19° 79° (E) 06:41:19 435.000/436.395/437.385
XW-2A 25 Feb 06:35:17 06:38:27 31° 96° (E) 06:41:36 145.665 - 145.685
BUGSAT 1 25 Feb 06:36:56 06:39:39 17° 13° (NNE) 06:42:22 437.445
DOVE 4 25 Feb 06:37:51 06:42:20 88° 113° (ESE) 06:47:05 437.250
XW-2C 25 Feb 06:38:45 06:42:39 90° 102° (ESE) 06:46:30 145.795 - 145.815
SEEDS 25 Feb 06:39:35 06:43:08 26° 89° (E) 06:46:39 437.485
Gurwin Techsat 1B 25 Feb 06:42:45 06:46:57 24° 354° (N) 06:51:08 435.225
BEESAT 3 25 Feb 06:43:14 06:45:45 16° 132° (SE) 06:48:17 437.485
NUDT-PHONESAT 25 Feb 06:51:38 06:55:27 84° 294° (WNW) 06:59:15 437.300
STRAND 1 25 Feb 06:52:43 06:57:13 29° 270° (W) 07:01:45 437.568
LilacSat-2 25 Feb 06:55:22 06:59:16 72° 297° (WNW) 07:03:08 437.200
ZACube-1 25 Feb 06:56:24 06:59:38 18° 79° (E) 07:02:50 437.345
AO-85 25 Feb 07:02:05 07:05:58 39° 165° (SSE) 07:09:42 145.980
O/OREOS (USA 219) 25 Feb 07:03:37 07:07:46 36° 237° (WSW) 07:11:58 437.305
DUCHIFAT 1 25 Feb 07:12:49 07:16:16 25° 33° (NNE) 07:19:45 145.980
CUTE 1.7 + AOD 2 25 Feb 07:17:22 07:21:32 50° 102° (ESE) 07:25:39 437.475
HO-68 25 Feb 07:18:58 07:25:59 52° 102° (ESE) 07:32:57 435.675
BEESAT 2 25 Feb 07:20:51 07:23:28 17° 133° (SE) 07:26:05 435.950
EO-79 25 Feb 07:23:04 07:26:41 28° 37° (NE) 07:30:21 145.935-145.965
CUBEBUG 2 25 Feb 07:32:53 07:37:27 44° 98° (E) 07:42:02 437.445
Oscar 19 25 Feb 07:38:18 07:42:24 24° 15° (NNE) 07:46:29 437.125/150
CUTE-I 25 Feb 07:39:23 07:44:45 67° 305° (NW) 07:50:06 437.470
NANOSAT C BR1 25 Feb 07:40:00 07:43:44 30° 40° (NE) 07:47:30 145.865
POLYITAN 1 25 Feb 07:40:14 07:44:03 32° 41° (NE) 07:47:53 437.675
AIST 2D 25 Feb 07:41:56 07:45:05 29° 47° (NE) 07:48:15 435.315
QB50P2 25 Feb 07:43:08 07:46:59 33° 42° (NE) 07:50:51 145.880/145.840
AO-73 25 Feb 07:44:50 07:48:54 30° 90° (E) 07:52:55 145.935
PRISM 25 Feb 07:50:21 07:54:21 53° 255° (WSW) 07:58:23 437.425
KAITUO 1B 25 Feb 07:50:27 07:54:04 41° 308° (NW) 07:57:39 145.475/437.950
Oscar 11 25 Feb 07:52:01 07:55:50 28° 91° (E) 07:59:37 .
XW-2F 25 Feb 07:54:53 07:58:28 37° 310° (NW) 08:02:01 145.980 - 146.000
UNISAT 6 25 Feb 07:56:06 08:00:45 84° 248° (WSW) 08:05:30 437.425
TIGRISAT 25 Feb 07:56:28 08:01:06 86° 250° (WSW) 08:05:51 435.000
YUBILEINY 25 Feb 07:56:54 08:04:09 30° 68° (ENE) 08:11:23 435.215
XW-2D 25 Feb 07:59:25 08:02:58 34° 312° (NW) 08:06:29 145.860 - 145.880
XW-2B 25 Feb 08:04:29 08:08:00 33° 313° (NW) 08:11:29 145.730 - 145.750
DELFI C3 25 Feb 08:04:39 08:07:23 18° 83° (E) 08:10:07 145.870
AAUSAT CUBESAT 2 25 Feb 08:04:59 08:09:03 51° 103° (ESE) 08:13:05 437.432
XW-2A 25 Feb 08:08:02 08:11:31 65° 298° (WNW) 08:14:58 145.665 - 145.685
FO-29 25 Feb 08:09:54 08:17:34 85° 61° (ENE) 08:25:31 435.910
BUGSAT 1 25 Feb 08:10:31 08:14:02 27° 36° (NE) 08:17:34 437.445
UWE-3 25 Feb 08:10:50 08:15:28 54° 102° (ESE) 08:20:04 435.000/436.395/437.385
ITAMSAT 1 25 Feb 08:12:16 08:16:23 24° 357° (N) 08:20:30 435.822/435.867
XW-2C 25 Feb 08:13:09 08:16:36 31° 315° (NW) 08:20:00 145.795 - 145.815
SEEDS 25 Feb 08:15:11 08:19:26 83° 110° (ESE) 08:23:38 437.485
DOVE 4 25 Feb 08:15:46 08:19:49 36° 315° (NW) 08:24:04 437.250
AO-7 25 Feb 08:15:53 08:23:46 48° 353° (N) 08:31:37 .
BEESAT 3 25 Feb 08:18:53 08:22:29 33° 155° (SSE) 08:26:07 437.485
Gurwin Techsat 1B 25 Feb 08:21:20 08:25:44 27° 19° (NNE) 08:30:08 435.225
NUDT-PHONESAT 25 Feb 08:25:47 08:29:05 28° 316° (NW) 08:32:23 437.300
LilacSat-2 25 Feb 08:29:52 08:33:10 26° 319° (NW) 08:36:26 437.200
ZACube-1 25 Feb 08:32:22 08:36:55 53° 102° (ESE) 08:41:25 437.345
STRAND 1 25 Feb 08:37:01 08:38:12 11° 295° (WNW) 08:39:24 437.568
AO-85 25 Feb 08:42:02 08:45:55 43° 188° (S) 08:49:39 145.980
O/OREOS (USA 219) 25 Feb 08:44:01 08:46:05 13° 260° (W) 08:48:09 437.305
DUCHIFAT 1 25 Feb 08:47:13 08:51:22 55° 55° (NE) 08:55:34 145.980
LO-87 25 Feb 08:52:04 08:52:49 10° 76° (ENE) 08:53:35 145.935 - 145.965
CUTE 1.7 + AOD 2 25 Feb 08:53:19 08:57:30 53° 304° (NW) 09:01:38 437.475
BEESAT 2 25 Feb 08:56:44 09:00:22 33° 155° (SSE) 09:04:03 435.950
EO-79 25 Feb 08:57:46 09:02:00 66° 60° (ENE) 09:06:17 145.935-145.965
HO-68 25 Feb 09:07:02 09:14:14 78° 307° (NW) 09:21:23 435.675
CUBEBUG 2 25 Feb 09:09:37 09:14:22 67° 300° (WNW) 09:19:06 437.445
AIST 2D 25 Feb 09:14:29 09:18:05 85° 251° (WSW) 09:21:42 435.315
NANOSAT C BR1 25 Feb 09:14:50 09:19:06 78° 62° (ENE) 09:23:24 145.865
POLYITAN 1 25 Feb 09:15:12 09:19:30 81° 65° (ENE) 09:23:50 437.675
Oscar 19 25 Feb 09:16:04 09:20:48 38° 39° (NE) 09:25:32 437.125/150
QB50P2 25 Feb 09:18:11 09:22:29 86° 63° (ENE) 09:26:49 145.880/145.840
CUTE-I 25 Feb 09:19:28 09:24:17 34° 328° (NNW) 09:29:06 437.470
AO-73 25 Feb 09:21:04 09:25:43 88° 104° (ESE) 09:30:18 145.935
KAITUO 1B 25 Feb 09:24:43 09:27:24 19° 330° (NNW) 09:30:05 145.475/437.950
PRISM 25 Feb 09:27:53 09:30:33 17° 277° (W) 09:33:13 437.425
Oscar 11 25 Feb 09:28:08 09:32:32 89° 111° (ESE) 09:36:54 .
XW-2F 25 Feb 09:29:14 09:31:52 18° 333° (NNW) 09:34:29 145.980 - 146.000
XW-2D 25 Feb 09:33:48 09:36:23 17° 334° (NNW) 09:38:56 145.860 - 145.880
UNISAT 6 25 Feb 09:34:04 09:38:06 29° 271° (W) 09:42:12 437.425
TIGRISAT 25 Feb 09:34:20 09:38:24 30° 270° (W) 09:42:32 435.000
XW-2B 25 Feb 09:38:52 09:41:23 17° 335° (NNW) 09:43:54 145.730 - 145.750
DELFI C3 25 Feb 09:39:04 09:43:00 59° 105° (ESE) 09:46:53 145.870
AAUSAT CUBESAT 2 25 Feb 09:40:35 09:44:37 50° 305° (NW) 09:48:36 437.432
XW-2A 25 Feb 09:41:06 09:43:52 22° 320° (NW) 09:46:38 145.665 - 145.685
BUGSAT 1 25 Feb 09:44:49 09:48:55 65° 59° (ENE) 09:53:06 437.445
UWE-3 25 Feb 09:47:26 09:52:03 56° 305° (NW) 09:56:38 435.000/436.395/437.385
XW-2C 25 Feb 09:47:31 09:49:56 16° 337° (NNW) 09:52:21 145.795 - 145.815
ESTCUBE 1 25 Feb 09:49:19 09:52:38 20° 83° (E) 09:55:56 437.505/2401.250
ITAMSAT 1 25 Feb 09:50:19 09:54:42 28° 21° (NNE) 09:59:07 435.822/435.867
YUBILEINY 25 Feb 09:50:57 09:59:35 64° 96° (E) 10:08:13 435.215
SEEDS 25 Feb 09:51:04 09:54:55 35° 314° (NW) 09:58:45 437.485
DOVE 4 25 Feb 09:53:30 09:56:41 20° 338° (NNW) 09:59:58 437.250
BEESAT 3 25 Feb 09:55:47 09:59:37 44° 178° (S) 10:03:28 437.485
FO-29 25 Feb 09:55:52 10:03:13 49° 266° (W) 10:10:53 435.910
Gurwin Techsat 1B 25 Feb 09:59:48 10:04:49 44° 43° (NE) 10:09:52 435.225
NUDT-PHONESAT 25 Feb 09:59:54 10:02:09 15° 339° (NNW) 10:04:24 437.300
LilacSat-2 25 Feb 10:04:15 10:06:30 15° 342° (NNW) 10:08:45 437.200
AO-7 25 Feb 10:07:35 10:15:34 52° 19° (NNE) 10:23:33 .
ZACube-1 25 Feb 10:08:48 10:13:19 55° 305° (NW) 10:17:48 437.345
VELOX 1 25 Feb 10:15:23 10:18:01 15° 78° (ENE) 10:20:38 145.980
AO-85 25 Feb 10:22:15 10:25:42 28° 211° (SSW) 10:29:05 145.980
DUCHIFAT 1 25 Feb 10:23:04 10:27:11 49° 258° (WSW) 10:31:22 145.980
LO-87 25 Feb 10:23:58 10:27:19 36° 98° (E) 10:30:41 145.935 - 145.965
SPROUT 25 Feb 10:24:02 10:26:40 15° 79° (ENE) 10:29:17 437.525
CUTE 1.7 + AOD 2 25 Feb 10:29:19 10:32:44 24° 327° (NNW) 10:36:08 437.475
BEESAT 2 25 Feb 10:33:48 10:37:40 45° 178° (S) 10:41:34 435.950
EO-79 25 Feb 10:34:02 10:38:04 39° 262° (W) 10:42:08 145.935-145.965
CUBEBUG 2 25 Feb 10:46:22 10:50:29 30° 323° (NW) 10:54:38 437.445
AIST 2D 25 Feb 10:48:56 10:51:50 22° 271° (W) 10:54:45 435.315
NANOSAT C BR1 25 Feb 10:51:21 10:55:13 33° 265° (W) 10:59:08 145.865
POLYITAN 1 25 Feb 10:51:52 10:55:44 32° 266° (W) 10:59:39 437.675
50 SAT 25 Feb 10:53:17 10:55:29 16° 85° (E) 10:57:39 437.505
Oscar 19 25 Feb 10:54:38 10:59:49 84° 61° (ENE) 11:04:59 437.125/150
HO-68 25 Feb 10:54:45 11:01:31 47° 332° (NNW) 11:08:15 435.675
QB50P2 25 Feb 10:54:59 10:58:47 30° 267° (W) 11:02:36 145.880/145.840
AO-73 25 Feb 10:57:28 11:01:42 37° 315° (NW) 11:05:54 145.935
KAITUO 1B 25 Feb 10:58:35 11:00:19 13° 353° (N) 11:02:04 145.475/437.950
CUTE-I 25 Feb 10:59:01 11:03:18 25° 352° (N) 11:07:35 437.470
XW-2F 25 Feb 11:03:06 11:04:52 13° 356° (N) 11:06:38 145.980 - 146.000
Oscar 11 25 Feb 11:04:27 11:08:25 35° 316° (NW) 11:12:21 .
XW-2D 25 Feb 11:07:38 11:09:24 13° 357° (N) 11:11:11 145.860 - 145.880
XW-2B 25 Feb 11:12:39 11:14:24 13° 358° (N) 11:16:11 145.730 - 145.750
DELFI C3 25 Feb 11:14:01 11:17:47 43° 308° (NW) 11:21:31 145.870
XW-2A 25 Feb 11:14:13 11:15:43 12° 342° (NNW) 11:17:12 145.665 - 145.685
TIGRISAT 25 Feb 11:15:59 11:16:40 10° 294° (WNW) 11:17:21 435.000
AAUSAT CUBESAT 2 25 Feb 11:16:14 11:19:28 22° 328° (NNW) 11:22:41 437.432
BUGSAT 1 25 Feb 11:20:40 11:24:34 39° 262° (W) 11:28:32 437.445
XW-2C 25 Feb 11:21:11 11:22:57 13° 0° (N) 11:24:43 145.795 - 145.815
UWE-3 25 Feb 11:23:59 11:27:53 26° 327° (NNW) 11:31:47 435.000/436.395/437.385
ESTCUBE 1 25 Feb 11:25:53 11:30:21 59° 106° (ESE) 11:34:48 437.505/2401.250
SEEDS 25 Feb 11:26:49 11:29:47 19° 337° (NNW) 11:32:43 437.485
ITAMSAT 1 25 Feb 11:28:24 11:33:24 47° 45° (NE) 11:38:26 435.822/435.867
DOVE 4 25 Feb 11:30:29 11:33:11 16° 2° (N) 11:35:58 437.250
BEESAT 3 25 Feb 11:33:05 11:36:46 36° 201° (SSW) 11:40:29 437.485
NUDT-PHONESAT 25 Feb 11:33:16 11:34:53 12° 1° (N) 11:36:31 437.300
LilacSat-2 25 Feb 11:37:43 11:39:35 13° 5° (N) 11:41:25 437.200
Gurwin Techsat 1B 25 Feb 11:39:14 11:44:36 84° 247° (WSW) 11:49:59 435.225
DX 1 25 Feb 11:42:57 11:46:43 27° 92° (E) 11:50:28 434.975-435.025
FO-29 25 Feb 11:44:18 11:50:11 23° 292° (WNW) 11:56:14 435.910
ZACube-1 25 Feb 11:45:10 11:48:59 26° 328° (NNW) 11:52:46 437.345
YUBILEINY 25 Feb 11:47:47 11:56:35 68° 303° (WNW) 12:05:23 435.215
VELOX 1 25 Feb 11:51:18 11:55:35 45° 102° (ESE) 11:59:50 145.980
UKube-1 25 Feb 11:55:06 11:58:49 27° 91° (E) 12:02:31 .
LO-87 25 Feb 11:57:28 12:01:00 59° 300° (WNW) 12:04:33 145.935 - 145.965
SPROUT 25 Feb 11:59:26 12:03:38 47° 101° (E) 12:07:49 437.525
AO-7 25 Feb 11:59:30 12:07:52 77° 45° (NE) 12:16:13 .
DUCHIFAT 1 25 Feb 12:01:13 12:03:52 16° 280° (W) 12:06:33 145.980
AO-85 25 Feb 12:03:22 12:05:01 12° 234° (SW) 12:06:40 145.980
CUTE 1.7 + AOD 2 25 Feb 12:04:54 12:07:29 16° 350° (N) 12:10:05 437.475
BEESAT 2 25 Feb 12:11:16 12:15:00 36° 201° (SSW) 12:18:46 435.950
EO-79 25 Feb 12:12:58 12:15:01 13° 285° (WNW) 12:17:05 145.935-145.965
CUBEBUG 2 25 Feb 12:22:43 12:26:03 19° 346° (NNW) 12:29:26 437.445
50 SAT 25 Feb 12:25:52 12:29:20 58° 107° (ESE) 12:32:46 437.505
NANOSAT C BR1 25 Feb 12:31:03 12:32:16 11° 288° (WNW) 12:33:30 145.865
KAITUO 1B 25 Feb 12:31:05 12:33:07 14° 16° (NNE) 12:35:10 145.475/437.950
POLYITAN 1 25 Feb 12:31:56 12:32:54 11° 289° (WNW) 12:33:52 437.675
AO-73 25 Feb 12:33:39 12:37:02 21° 339° (NNW) 12:40:26 145.935
Oscar 19 25 Feb 12:34:54 12:39:40 37° 265° (W) 12:44:27 437.125/150
XW-2F 25 Feb 12:35:36 12:37:48 15° 19° (NNE) 12:40:01 145.980 - 146.000
CUTE-I 25 Feb 12:37:44 12:42:10 27° 17° (NNE) 12:46:36 437.470
XW-2D 25 Feb 12:40:06 12:42:24 15° 20° (NNE) 12:44:43 145.860 - 145.880
Oscar 11 25 Feb 12:40:34 12:43:40 19° 339° (NNW) 12:46:46 .
HO-68 25 Feb 12:41:45 12:48:13 38° 358° (N) 12:54:39 435.675
XW-2B 25 Feb 12:45:04 12:47:25 16° 21° (NNE) 12:49:46 145.730 - 145.750
XW-2A 25 Feb 12:46:31 12:47:17 11° 5° (N) 12:48:04 145.665 - 145.685
DELFI C3 25 Feb 12:49:01 12:51:55 20° 330° (NNW) 12:54:47 145.870
AAUSAT CUBESAT 2 25 Feb 12:51:27 12:53:50 15° 351° (N) 12:56:14 437.432
XW-2C 25 Feb 12:53:31 12:55:58 16° 23° (NNE) 12:58:26 145.795 - 145.815
BUGSAT 1 25 Feb 12:59:13 13:01:06 13° 284° (WNW) 13:03:01 437.445
UWE-3 25 Feb 13:00:03 13:03:14 18° 351° (N) 13:06:25 435.000/436.395/437.385
SEEDS 25 Feb 13:01:51 13:04:16 15° 0° (N) 13:06:40 437.485
ESTCUBE 1 25 Feb 13:02:51 13:07:12 49° 308° (NW) 13:11:33 437.505/2401.250
NUDT-PHONESAT 25 Feb 13:05:16 13:07:39 16° 24° (NNE) 13:10:03 437.300
DOVE 4 25 Feb 13:06:29 13:09:42 21° 26° (NNE) 13:13:02 437.250
ITAMSAT 1 25 Feb 13:07:32 13:12:47 75° 248° (WSW) 13:18:05 435.822/435.867
LilacSat-2 25 Feb 13:10:01 13:12:43 18° 28° (NNE) 13:15:24 437.200
BEESAT 3 25 Feb 13:10:42 13:13:38 20° 223° (SW) 13:16:33 437.485
DX 1 25 Feb 13:19:07 13:23:30 85° 114° (ESE) 13:27:52 434.975-435.025
Gurwin Techsat 1B 25 Feb 13:20:31 13:25:16 32° 269° (W) 13:30:03 435.225
ZACube-1 25 Feb 13:21:04 13:24:09 18° 351° (N) 13:27:14 437.345
VELOX 1 25 Feb 13:27:53 13:32:15 61° 304° (WNW) 13:36:37 145.980
UKube-1 25 Feb 13:31:06 13:35:27 84° 112° (ESE) 13:39:48 .
LO-87 25 Feb 13:31:11 13:34:00 22° 322° (NW) 13:36:49 145.935 - 145.965
ITUPSAT 1 25 Feb 13:34:33 13:38:38 26° 89° (E) 13:42:41 437.325
SPROUT 25 Feb 13:35:29 13:39:44 58° 303° (WNW) 13:43:59 437.525
FO-29 25 Feb 13:36:53 13:38:34 11° 319° (NW) 13:40:16 435.910
CUTE 1.7 + AOD 2 25 Feb 13:39:24 13:42:05 17° 13° (NNE) 13:44:47 437.475
BEESAT 25 Feb 13:41:07 13:45:17 28° 90° (E) 13:49:25 436.000
YUBILEINY 25 Feb 13:46:45 13:55:01 42° 333° (NNW) 14:03:16 435.215
BEESAT 2 25 Feb 13:49:05 13:52:01 19° 223° (SW) 13:54:58 435.950
AO-7 25 Feb 13:52:52 14:01:08 59° 252° (WSW) 14:09:24 .
CUBEBUG 2 25 Feb 13:58:11 14:01:25 19° 9° (N) 14:04:40 437.445
50 SAT 25 Feb 13:59:09 14:02:25 38° 308° (NW) 14:05:40 437.505
MOZHAYETS 4 25 Feb 14:01:15 14:04:57 23° 85° (E) 14:08:37
KAITUO 1B 25 Feb 14:03:05 14:06:10 24° 39° (NE) 14:09:17 145.475/437.950
XW-2F 25 Feb 14:07:46 14:11:01 26° 41° (NE) 14:14:17 145.980 - 146.000
AO-73 25 Feb 14:09:05 14:12:03 17° 2° (N) 14:15:03 145.935
XW-2D 25 Feb 14:12:22 14:15:42 28° 43° (NE) 14:19:02 145.860 - 145.880
Oscar 11 25 Feb 14:15:55 14:18:37 16° 2° (N) 14:21:17 .
CUTE-I 25 Feb 14:16:18 14:21:20 43° 41° (NE) 14:26:24 437.470
XW-2A 25 Feb 14:16:54 14:18:56 15° 27° (NNE) 14:20:59 145.665 - 145.685
XW-2B 25 Feb 14:17:21 14:20:44 29° 44° (NE) 14:24:07 145.730 - 145.750
Oscar 19 25 Feb 14:18:01 14:20:32 14° 289° (WNW) 14:23:04 437.125/150
DELFI C3 25 Feb 14:23:34 14:25:36 14° 353° (N) 14:27:37 145.870
AAUSAT CUBESAT 2 25 Feb 14:25:33 14:28:05 16° 14° (NNE) 14:30:36 437.432
XW-2C 25 Feb 14:25:53 14:29:20 31° 46° (NE) 14:32:48 145.795 - 145.815
HO-68 25 Feb 14:28:10 14:34:52 44° 24° (NNE) 14:41:33 435.675
KKS-1 25 Feb 14:31:47 14:34:32 16° 79° (E) 14:37:15 437.445
UWE-3 25 Feb 14:35:09 14:38:25 19° 14° (NNE) 14:41:42 435.000/436.395/437.385
SEEDS 25 Feb 14:35:49 14:38:47 19° 23° (NNE) 14:41:44 437.485
NUDT-PHONESAT 25 Feb 14:37:22 14:40:46 32° 47° (NE) 14:44:11 437.300
ESTCUBE 1 25 Feb 14:39:43 14:43:21 24° 331° (NNW) 14:46:59 437.505/2401.250
LilacSat-2 25 Feb 14:42:38 14:46:15 37° 50° (NE) 14:49:53 437.200
DOVE 4 25 Feb 14:42:40 14:46:39 42° 50° (NE) 14:50:48 437.250
ITAMSAT 1 25 Feb 14:48:35 14:53:05 28° 271° (W) 14:57:35 435.822/435.867
DX 1 25 Feb 14:55:28 14:59:28 36° 317° (NW) 15:03:29 434.975-435.025
ZACube-1 25 Feb 14:55:59 14:59:10 19° 14° (NNE) 15:02:22 437.345
CUBESAT XI-V 25 Feb 15:01:00 15:04:19 19° 81° (E) 15:07:37 437.345
VELOX 1 25 Feb 15:04:28 15:08:11 27° 326° (NNW) 15:11:54 145.980
LO-87 25 Feb 15:04:53 15:06:29 13° 344° (NNW) 15:08:05 145.935 - 145.965
Gurwin Techsat 1B 25 Feb 15:05:01 15:06:59 12° 294° (WNW) 15:08:58 435.225
RS-15 25 Feb 15:05:23 15:12:57 19° 91° (E) 15:20:33 29.354- 29.394
STARS 25 Feb 15:05:28 15:08:12 16° 79° (E) 15:10:55 437.465
PCSat 25 Feb 15:05:40 15:08:07 13° 108° (ESE) 15:10:34 145.827
UKube-1 25 Feb 15:07:18 15:11:17 37° 316° (NW) 15:15:16 .
SPROUT 25 Feb 15:11:33 15:15:07 25° 326° (NW) 15:18:40 437.525
ITUPSAT 1 25 Feb 15:12:22 15:17:14 75° 111° (ESE) 15:22:03 437.325
CUTE 1.7 + AOD 2 25 Feb 15:13:20 15:16:53 26° 37° (NE) 15:20:27 437.475
BEESAT 25 Feb 15:18:53 15:23:45 81° 114° (ESE) 15:28:34 436.000
50 SAT 25 Feb 15:32:34 15:34:53 17° 330° (NNW) 15:37:10 437.505
CUBEBUG 2 25 Feb 15:33:02 15:36:55 27° 33° (NNE) 15:40:53 437.445
KAITUO 1B 25 Feb 15:35:57 15:39:45 62° 60° (ENE) 15:43:33 145.475/437.950
MOZHAYETS 4 25 Feb 15:38:17 15:42:57 67° 107° (ESE) 15:47:33
XW-2F 25 Feb 15:40:56 15:44:48 72° 62° (ENE) 15:48:40 145.980 - 146.000
AO-73 25 Feb 15:43:36 15:47:06 22° 25° (NNE) 15:50:37 145.935
XW-2D 25 Feb 15:45:41 15:49:34 79° 64° (ENE) 15:53:28 145.860 - 145.880
YUBILEINY 25 Feb 15:46:23 15:54:21 36° 4° (N) 16:02:17 435.215
XW-2A 25 Feb 15:47:51 15:50:57 32° 50° (NE) 15:54:06 145.665 - 145.685
AO-7 25 Feb 15:48:50 15:55:46 28° 279° (W) 16:02:43 .
Oscar 11 25 Feb 15:50:19 15:53:35 21° 26° (NNE) 15:56:51 .
XW-2B 25 Feb 15:50:44 15:54:37 83° 67° (ENE) 15:58:32 145.730 - 145.750
CUTE-I 25 Feb 15:55:46 16:01:09 88° 243° (WSW) 16:06:35 437.470
DELFI C3 25 Feb 15:56:52 15:59:11 15° 16° (NNE) 16:01:29 145.870
AAUSAT CUBESAT 2 25 Feb 15:59:06 16:02:32 26° 37° (NE) 16:05:58 437.432
XW-2C 25 Feb 15:59:23 16:03:18 88° 248° (WSW) 16:07:12 145.795 - 145.815
KKS-1 25 Feb 16:07:51 16:12:11 46° 102° (ESE) 16:16:31 437.445
SEEDS 25 Feb 16:09:46 16:13:38 35° 46° (NE) 16:17:29 437.485
UWE-3 25 Feb 16:09:49 16:13:50 30° 37° (NE) 16:17:54 435.000/436.395/437.385
NUDT-PHONESAT 25 Feb 16:10:41 16:14:29 84° 249° (WSW) 16:18:20 437.300
HO-68 25 Feb 16:14:53 16:22:02 72° 49° (NE) 16:29:11 435.675
ESTCUBE 1 25 Feb 16:16:03 16:19:03 18° 355° (N) 16:22:04 437.505/2401.250
LilacSat-2 25 Feb 16:16:32 16:20:26 69° 253° (WSW) 16:24:21 437.200
DOVE 4 25 Feb 16:20:08 16:24:19 66° 253° (WSW) 16:28:41 437.250
ZACube-1 25 Feb 16:30:28 16:34:25 29° 37° (NE) 16:38:25 437.345
DX 1 25 Feb 16:31:37 16:34:51 21° 340° (NNW) 16:38:05 434.975-435.025
ITAMSAT 1 25 Feb 16:33:49 16:34:26 10° 296° (WNW) 16:35:01 435.822/435.867
LO-87 25 Feb 16:37:30 16:38:45 11° 7° (N) 16:39:58 145.935 - 145.965
CUBESAT XI-V 25 Feb 16:38:07 16:42:41 56° 104° (ESE) 16:47:14 437.345
VELOX 1 25 Feb 16:40:38 16:43:38 18° 350° (N) 16:46:38 145.980
STARS 25 Feb 16:41:19 16:45:38 47° 102° (ESE) 16:49:55 437.465
UKube-1 25 Feb 16:43:19 16:46:31 21° 339° (NNW) 16:49:43 .
PCSat 25 Feb 16:45:21 16:50:05 31° 132° (SE) 16:54:51 145.827
SPROUT 25 Feb 16:47:13 16:49:59 17° 349° (N) 16:52:46 437.525
CUTE 1.7 + AOD 2 25 Feb 16:48:00 16:52:14 62° 59° (ENE) 16:56:28 437.475
ITUPSAT 1 25 Feb 16:50:22 16:54:57 44° 314° (NW) 16:59:31 437.325
BEESAT 25 Feb 16:56:50 17:01:22 42° 316° (NW) 17:05:52 436.000
M-CUBED/EXP-1 PRIME 25 Feb 17:04:45 17:07:47 26° 105° (ESE) 17:10:59 437.505
50 SAT 25 Feb 17:05:46 17:06:55 11° 353° (N) 17:08:05 437.505
STRAND 1 25 Feb 17:08:11 17:11:15 16° 74° (ENE) 17:14:20 437.568
CUBEBUG 2 25 Feb 17:08:23 17:12:55 57° 56° (NE) 17:17:35 437.445
KAITUO 1B 25 Feb 17:10:26 17:14:01 37° 262° (W) 17:17:37 145.475/437.950
RS-15 25 Feb 17:10:57 17:21:47 40° 120° (ESE) 17:32:45 29.354- 29.394
MOZHAYETS 4 25 Feb 17:15:37 17:20:05 46° 310° (NW) 17:24:29
XW-2F 25 Feb 17:15:47 17:19:18 32° 265° (W) 17:22:49 145.980 - 146.000
AO-73 25 Feb 17:18:15 17:22:32 41° 48° (NE) 17:26:51 145.935
XW-2A 25 Feb 17:20:09 17:23:36 71° 251° (WSW) 17:27:04 145.665 - 145.685
XW-2D 25 Feb 17:20:44 17:24:10 29° 267° (W) 17:27:37 145.860 - 145.880
Oscar 11 25 Feb 17:24:51 17:28:56 40° 49° (NE) 17:33:03 .
XW-2B 25 Feb 17:25:53 17:29:16 28° 268° (W) 17:32:40 145.730 - 145.750
DELFI C3 25 Feb 17:29:43 17:33:01 26° 39° (NE) 17:36:19 145.870
AAUSAT CUBESAT 2 25 Feb 17:33:24 17:37:31 62° 60° (ENE) 17:41:38 437.432
XW-2C 25 Feb 17:34:46 17:38:01 25° 270° (W) 17:41:18 145.795 - 145.815
CUTE-I 25 Feb 17:37:00 17:41:52 34° 268° (W) 17:46:46 437.470
KKS-1 25 Feb 17:44:32 17:48:58 61° 304° (NW) 17:53:23 437.445
SEEDS 25 Feb 17:44:52 17:49:07 83° 249° (WSW) 17:53:23 437.485
YUBILEINY 25 Feb 17:45:07 17:53:33 46° 35° (NE) 18:01:54 435.215
UWE-3 25 Feb 17:45:14 17:49:48 68° 60° (ENE) 17:54:29 435.000/436.395/437.385
NUDT-PHONESAT 25 Feb 17:45:53 17:48:59 23° 271° (W) 17:52:06 437.300
AO-7 25 Feb 17:49:15 17:52:05 12° 308° (NW) 17:54:55 .
ESTCUBE 1 25 Feb 17:51:24 17:54:41 20° 18° (NNE) 17:57:57 437.505/2401.250
LilacSat-2 25 Feb 17:52:27 17:55:24 20° 274° (W) 17:58:22 437.200
DOVE 4 25 Feb 17:59:41 18:02:54 21° 277° (W) 18:06:12 437.250
HO-68 25 Feb 18:03:02 18:10:07 58° 254° (WSW) 18:17:14 435.675
ZACube-1 25 Feb 18:05:41 18:10:13 68° 60° (ENE) 18:14:50 437.345
DX 1 25 Feb 18:07:02 18:09:54 18° 3° (N) 18:12:47 434.975-435.025
LO-87 25 Feb 18:08:44 18:11:06 17° 30° (NNE) 18:13:29 145.935 - 145.965
CUBESAT XI-V 25 Feb 18:15:39 18:20:10 53° 307° (NW) 18:24:38 437.345
VELOX 1 25 Feb 18:15:51 18:18:54 19° 13° (NNE) 18:21:58 145.980
STARS 25 Feb 18:17:48 18:22:10 60° 305° (NW) 18:26:33 437.465
UKube-1 25 Feb 18:18:35 18:21:25 17° 3° (N) 18:24:15 .
SPROUT 25 Feb 18:21:53 18:24:41 17° 13° (NNE) 18:27:31 437.525
CUTE 1.7 + AOD 2 25 Feb 18:24:13 18:28:19 42° 262° (W) 18:32:25 437.475
PCSat 25 Feb 18:27:30 18:32:50 57° 156° (SSE) 18:38:10 145.827
ITUPSAT 1 25 Feb 18:28:08 18:32:01 25° 338° (NNW) 18:35:55 437.325
BEESAT 25 Feb 18:34:31 18:38:20 24° 339° (NNW) 18:42:09 436.000
50 SAT 25 Feb 18:37:19 18:38:52 13° 16° (NNE) 18:40:25 437.505
M-CUBED/EXP-1 PRIME 25 Feb 18:39:11 18:42:42 89° 111° (ESE) 18:46:28 437.505
CUBEBUG 2 25 Feb 18:45:11 18:49:41 51° 259° (W) 18:54:20 437.445
STRAND 1 25 Feb 18:46:55 18:51:51 42° 98° (E) 18:56:45 437.568
KAITUO 1B 25 Feb 18:47:53 18:49:09 11° 285° (WNW) 18:50:25 145.475/437.950
MOZHAYETS 4 25 Feb 18:52:49 18:56:30 24° 333° (NNW) 19:00:11
AO-73 25 Feb 18:54:04 18:58:37 76° 251° (WSW) 19:03:15 145.935
XW-2A 25 Feb 18:54:29 18:56:59 18° 273° (W) 18:59:30 145.665 - 145.685
Oscar 11 25 Feb 19:00:35 19:04:58 73° 251° (WSW) 19:09:21 .
DELFI C3 25 Feb 19:03:27 19:07:24 68° 61° (ENE) 19:11:20 145.870
FO-29 25 Feb 19:03:32 19:07:23 14° 51° (NE) 19:11:11 435.910
AAUSAT CUBESAT 2 25 Feb 19:09:18 19:13:14 40° 262° (W) 19:17:12 437.432
PRISM 25 Feb 19:18:23 19:19:39 11° 75° (ENE) 19:20:56 437.425
RS-15 25 Feb 19:20:32 19:32:31 63° 150° (SSE) 19:44:33 29.354- 29.394
KKS-1 25 Feb 19:21:13 19:25:00 28° 327° (NNW) 19:28:48 437.445
CUTE-I 25 Feb 19:21:16 19:23:38 13° 292° (WNW) 19:26:02 437.470
SEEDS 25 Feb 19:21:50 19:25:25 26° 271° (W) 19:28:59 437.485
UWE-3 25 Feb 19:22:12 19:26:34 42° 263° (W) 19:31:03 435.000/436.395/437.385
ESTCUBE 1 25 Feb 19:26:30 19:30:35 34° 41° (NE) 19:34:39 437.505/2401.250
UNISAT 6 25 Feb 19:34:11 19:35:58 12° 69° (ENE) 19:37:46 437.425
TIGRISAT 25 Feb 19:34:30 19:36:06 11° 69° (ENE) 19:37:42 435.000
LO-87 25 Feb 19:40:33 19:43:53 38° 52° (NE) 19:47:14 145.935 - 145.965
DX 1 25 Feb 19:41:36 19:45:00 23° 26° (NNE) 19:48:25 434.975-435.025
ZACube-1 25 Feb 19:42:28 19:46:49 42° 263° (W) 19:51:13 437.345
YUBILEINY 25 Feb 19:42:47 19:51:39 80° 65° (ENE) 20:00:24 435.215
VELOX 1 25 Feb 19:50:36 19:54:24 29° 36° (NE) 19:58:12 145.980
UKube-1 25 Feb 19:53:00 19:56:22 23° 26° (NNE) 19:59:44 .
CUBESAT XI-V 25 Feb 19:53:07 19:56:54 25° 330° (NNW) 20:00:40 437.345
HO-68 25 Feb 19:53:36 19:59:25 26° 280° (W) 20:05:15 435.675
STARS 25 Feb 19:54:16 19:58:00 27° 327° (NNW) 20:01:44 437.465
SPROUT 25 Feb 19:56:00 19:59:36 27° 36° (NE) 20:03:14 437.525
CUTE 1.7 + AOD 2 25 Feb 20:02:59 20:05:16 14° 284° (WNW) 20:07:34 437.475
ITUPSAT 1 25 Feb 20:05:11 20:08:44 21° 1° (N) 20:12:15 437.325
50 SAT 25 Feb 20:08:18 20:11:03 22° 38° (NE) 20:13:48 437.505
PCSat 25 Feb 20:10:34 20:16:00 71° 181° (S) 20:21:26 145.827
BEESAT 25 Feb 20:11:27 20:14:58 21° 3° (N) 20:18:29 436.000
M-CUBED/EXP-1 PRIME 25 Feb 20:13:53 20:17:02 34° 327° (NNW) 20:20:23 437.505
CUBEBUG 2 25 Feb 20:24:13 20:27:23 18° 282° (WNW) 20:30:37 437.445
STRAND 1 25 Feb 20:26:15 20:31:27 75° 301° (WNW) 20:36:37 437.568
MOZHAYETS 4 25 Feb 20:29:22 20:32:30 18° 357° (N) 20:35:40
AO-73 25 Feb 20:31:46 20:35:34 25° 273° (W) 20:39:25 145.935
Oscar 11 25 Feb 20:38:17 20:41:49 23° 273° (W) 20:45:22 .
DELFI C3 25 Feb 20:38:50 20:42:30 35° 264° (W) 20:46:10 145.870
AAUSAT CUBESAT 2 25 Feb 20:47:49 20:49:50 13° 284° (WNW) 20:51:50 437.432
FO-29 25 Feb 20:48:29 20:55:17 30° 78° (ENE) 21:01:45 435.910
PRISM 25 Feb 20:52:23 20:56:10 35° 98° (E) 20:59:55 437.425
KKS-1 25 Feb 20:57:27 21:00:33 19° 350° (N) 21:03:40 437.445
UWE-3 25 Feb 21:01:40 21:04:16 15° 286° (WNW) 21:06:54 435.000/436.395/437.385
ESTCUBE 1 25 Feb 21:02:33 21:07:05 85° 67° (ENE) 21:11:38 437.505/2401.250
UNISAT 6 25 Feb 21:09:49 21:14:08 33° 93° (E) 21:18:25 437.425
TIGRISAT 25 Feb 21:09:59 21:14:16 32° 92° (E) 21:18:31 435.000
LO-87 25 Feb 21:13:47 21:17:18 59° 255° (WSW) 21:20:52 145.935 - 145.965
DX 1 25 Feb 21:16:22 21:20:30 45° 49° (NE) 21:24:40 434.975-435.025
ZACube-1 25 Feb 21:21:45 21:24:19 15° 286° (WNW) 21:26:53 437.345
VELOX 1 25 Feb 21:26:02 21:30:25 69° 60° (ENE) 21:34:49 145.980
UKube-1 25 Feb 21:27:36 21:31:42 44° 49° (NE) 21:35:49 .
CUBESAT XI-V 25 Feb 21:30:02 21:33:10 18° 353° (N) 21:36:18 437.345
STARS 25 Feb 21:30:17 21:33:20 19° 350° (N) 21:36:24 437.465
SPROUT 25 Feb 21:30:47 21:35:02 63° 58° (ENE) 21:39:19 437.525
O/OREOS (USA 219) 25 Feb 21:31:48 21:34:12 14° 102° (ESE) 21:36:37 437.305
RS-15 25 Feb 21:32:04 21:44:19 73° 182° (S) 21:56:30 29.354- 29.394
YUBILEINY 25 Feb 21:39:50 21:48:14 52° 272° (W) 21:56:33 435.215
50 SAT 25 Feb 21:40:16 21:43:44 61° 59° (ENE) 21:47:12 437.505
ITUPSAT 1 25 Feb 21:41:28 21:45:26 26° 25° (NNE) 21:49:25 437.325
BEESAT 25 Feb 21:47:40 21:51:40 27° 27° (NNE) 21:55:39 436.000
M-CUBED/EXP-1 PRIME 25 Feb 21:48:18 21:50:57 21° 349° (N) 21:53:43 437.505
HO-68 25 Feb 21:48:54 21:50:09 10° 307° (NW) 21:51:24 435.675
DUCHIFAT 1 25 Feb 21:52:50 21:55:20 15° 78° (ENE) 21:57:49 145.980
PCSat 25 Feb 21:53:51 21:59:11 56° 205° (SSW) 22:04:30 145.827
AIST 2D 25 Feb 21:59:06 22:01:46 19° 86° (E) 22:04:26 435.315
EO-79 25 Feb 22:03:57 22:07:00 19° 82° (E) 22:10:03 145.935-145.965
MOZHAYETS 4 25 Feb 22:04:58 22:08:29 21° 21° (NNE) 22:11:58
STRAND 1 25 Feb 22:05:32 22:10:13 35° 324° (NW) 22:14:53 437.568
DELFI C3 25 Feb 22:17:19 22:18:28 11° 286° (WNW) 22:19:38 145.870
NANOSAT C BR1 25 Feb 22:20:33 22:23:53 22° 86° (E) 22:27:13 145.865
POLYITAN 1 25 Feb 22:21:30 22:24:58 23° 87° (E) 22:28:25 437.675
QB50P2 25 Feb 22:24:28 22:28:02 24° 88° (E) 22:31:35 145.880/145.840
SO-50 25 Feb 22:26:05 22:29:15 18° 132° (SE) 22:32:24 436.795
PRISM 25 Feb 22:27:43 22:31:48 71° 300° (WNW) 22:35:52 437.425
KKS-1 25 Feb 22:32:46 22:35:57 20° 14° (NNE) 22:39:08 437.445
FO-29 25 Feb 22:33:53 22:41:46 64° 103° (ESE) 22:49:13 435.910
ESTCUBE 1 25 Feb 22:40:19 22:44:24 32° 267° (W) 22:48:28 437.505/2401.250
UNISAT 6 25 Feb 22:46:36 22:51:20 85° 298° (WNW) 22:56:05 437.425
TIGRISAT 25 Feb 22:46:43 22:51:29 87° 295° (WNW) 22:56:13 435.000
BUGSAT 1 25 Feb 22:47:45 22:50:36 17° 82° (E) 22:53:26 437.445
LO-87 25 Feb 22:49:12 22:51:30 16° 276° (W) 22:53:49 145.935 - 145.965
Oscar 19 25 Feb 22:52:17 22:54:22 12° 69° (ENE) 22:56:26 437.125/150
DX 1 25 Feb 22:52:21 22:56:40 64° 252° (WSW) 23:01:01 434.975-435.025
VELOX 1 25 Feb 23:03:03 23:07:12 39° 262° (W) 23:11:22 145.980
UKube-1 25 Feb 23:03:23 23:07:41 66° 251° (WSW) 23:12:01 .
STARS 25 Feb 23:05:24 23:08:30 19° 14° (NNE) 23:11:39 437.465
CUBESAT XI-V 25 Feb 23:05:58 23:09:19 20° 17° (NNE) 23:12:40 437.345
SPROUT 25 Feb 23:07:07 23:11:12 42° 261° (W) 23:15:20 437.525
O/OREOS (USA 219) 25 Feb 23:08:23 23:12:34 39° 125° (SE) 23:16:49 437.305
50 SAT 25 Feb 23:13:52 23:17:06 34° 262° (W) 23:20:20 437.505
ITUPSAT 1 25 Feb 23:17:55 23:22:34 48° 48° (NE) 23:27:13 437.325
M-CUBED/EXP-1 PRIME 25 Feb 23:22:04 23:24:41 21° 12° (NNE) 23:27:26 437.505
BEESAT 25 Feb 23:24:07 23:28:46 51° 50° (NE) 23:33:27 436.000
DUCHIFAT 1 25 Feb 23:27:56 23:32:04 45° 101° (E) 23:36:12 145.980
AIST 2D 25 Feb 23:32:01 23:35:38 72° 108° (ESE) 23:39:13 435.315
YUBILEINY 25 Feb 23:36:38 23:43:15 25° 299° (WNW) 23:49:50 435.215
PCSat 25 Feb 23:37:10 23:41:54 31° 229° (SW) 23:46:36 145.827
EO-79 25 Feb 23:39:24 23:43:40 57° 105° (ESE) 23:47:55 145.935-145.965
MOZHAYETS 4 25 Feb 23:40:28 23:44:46 37° 44° (NE) 23:49:03
Gurwin Techsat 1B 25 Feb 23:40:51 23:44:10 16° 74° (ENE) 23:47:28 435.225
RS-15 25 Feb 23:44:03 23:56:04 61° 213° (SSW) 00:07:54 29.354- 29.394
STRAND 1 25 Feb 23:44:21 23:48:25 24° 348° (NNW) 23:52:29 437.568
AO-7 25 Feb 23:45:27 23:47:22 11° 49° (NE) 23:49:17 .
NANOSAT C BR1 25 Feb 23:56:04 00:00:22 67° 108° (ESE) 00:04:39 145.865
POLYITAN 1 25 Feb 23:57:08 00:01:28 71° 109° (ESE) 00:05:47 437.675
QB50P2 26 Feb 00:00:09 00:04:29 77° 110° (ESE) 00:08:49 145.880/145.840
PRISM 26 Feb 00:03:12 00:06:41 28° 322° (NW) 00:10:11 437.425
SO-50 26 Feb 00:04:35 00:08:47 35° 155° (SSE) 00:12:57 436.795
KKS-1 26 Feb 00:07:40 00:11:34 31° 37° (NE) 00:15:29 437.445
FO-29 26 Feb 00:19:08 00:27:00 69° 308° (NW) 00:34:28 435.910
ESTCUBE 1 26 Feb 00:21:25 00:22:39 11° 290° (WNW) 00:23:52 437.505/2401.250
BUGSAT 1 26 Feb 00:22:43 00:26:53 53° 104° (ESE) 00:31:03 437.445
UNISAT 6 26 Feb 00:23:27 00:27:44 35° 318° (NW) 00:32:02 437.425
TIGRISAT 26 Feb 00:23:34 00:27:52 36° 318° (NW) 00:32:11 435.000
DX 1 26 Feb 00:30:22 00:33:40 21° 274° (W) 00:37:00 434.975-435.025
Oscar 19 26 Feb 00:30:40 00:35:20 33° 93° (E) 00:39:59 437.125/150
STARS 26 Feb 00:40:04 00:43:55 30° 37° (NE) 00:47:47 437.465
UKube-1 26 Feb 00:41:12 00:44:31 21° 274° (W) 00:47:51 .
CUBESAT XI-V 26 Feb 00:41:36 00:45:45 33° 40° (NE) 00:49:54 437.345
VELOX 1 26 Feb 00:42:44 00:44:53 13° 285° (WNW) 00:47:02 145.980
SPROUT 26 Feb 00:46:00 00:48:16 14° 284° (WNW) 00:50:33 437.525
O/OREOS (USA 219) 26 Feb 00:47:11 00:51:44 87° 154° (SSE) 00:56:20 437.305
M-CUBED/EXP-1 PRIME 26 Feb 00:55:32 00:58:36 36° 35° (NE) 01:01:49 437.505
ITUPSAT 1 26 Feb 00:55:33 01:00:23 67° 251° (WSW) 01:05:13 437.325
BEESAT 26 Feb 01:01:49 01:06:35 62° 253° (WSW) 01:11:24 436.000
DUCHIFAT 1 26 Feb 01:03:43 01:07:56 59° 304° (WNW) 01:12:09 145.980
AIST 2D 26 Feb 01:05:27 01:08:42 33° 311° (NW) 01:11:58 435.315
ITAMSAT 1 26 Feb 01:05:50 01:09:09 17° 76° (ENE) 01:12:27 435.822/435.867
EO-79 26 Feb 01:15:19 01:19:28 48° 308° (NW) 01:23:37 145.935-145.965
MOZHAYETS 4 26 Feb 01:17:01 01:21:42 87° 247° (WSW) 01:26:23
Gurwin Techsat 1B 26 Feb 01:20:27 01:25:34 43° 98° (E) 01:30:38 435.225
PCSat 26 Feb 01:21:34 01:23:49 13° 253° (WSW) 01:26:05 145.827
STRAND 1 26 Feb 01:22:20 01:26:25 24° 12° (NNE) 01:30:30 437.568
NANOSAT C BR1 26 Feb 01:31:58 01:36:01 42° 311° (NW) 01:40:05 145.865
POLYITAN 1 26 Feb 01:33:06 01:37:10 41° 312° (NW) 01:41:13 437.675
YUBILEINY 26 Feb 01:33:32 01:36:50 13° 328° (NNW) 01:40:08 435.215
QB50P2 26 Feb 01:36:08 01:40:08 39° 313° (NW) 01:44:08 145.880/145.840
AO-7 26 Feb 01:37:07 01:43:52 26° 79° (E) 01:50:32 .
PRISM 26 Feb 01:38:24 01:41:03 17° 345° (NNW) 01:43:42 437.425
KKS-1 26 Feb 01:43:17 01:47:43 72° 60° (ENE) 01:52:12 437.445
SO-50 26 Feb 01:44:18 01:48:43 47° 178° (S) 01:53:04 436.795
RS-15 26 Feb 01:55:52 02:06:36 38° 243° (WSW) 02:17:09 29.354- 29.394
BUGSAT 1 26 Feb 01:58:14 02:02:20 51° 306° (NW) 02:06:27 437.445
UNISAT 6 26 Feb 02:00:02 02:03:31 21° 341° (NNW) 02:07:02 437.425
TIGRISAT 26 Feb 02:00:08 02:03:39 21° 340° (NNW) 02:07:11 435.000
FO-29 26 Feb 02:03:58 02:11:14 43° 333° (NNW) 02:18:19 435.910
Oscar 19 26 Feb 02:10:05 02:15:16 90° 82° (E) 02:20:26 437.125/150
STARS 26 Feb 02:15:28 02:19:51 72° 60° (ENE) 02:24:17 437.465
